Starlink 31881

operational
NORAD ID: 59659 Int'l Des: 2024-084 Owner: SPXS Country: US Constellation: starlink
LEOCIRCULAR

About Starlink 31881

Description loading...

Live Position

Loading 3D Globe...

Upcoming Passes

Altitude History

Altitude vs Time

uPlot chart will show altitude changes over time

Two-Line Element Set

1 59659U 24084F 25259.48179545 .00004284 00000-0 16097-3 0 9992
2 59659 42.9997 301.8865 0000997 275.2829 84.7909 15.28425757 77778
Epoch: Sep 16, 2025 • Age: 21 hours

Current Status

Altitude 479.8 km
Velocity 7.63 km/s
Sub-Earth Point 8.10°N, 18.62°W
Launch Date May 6, 2024
Age 1.3 years
Type internet

Technical Details

Classification Payload
Mass 730.00 kg
Dry Mass 700.00 kg
Total Mass 730.00 kg
Length 0.30 m
Diameter 4.10 m
Span 29.00 m
Shape Box + pan
Manufacturer SPXS
Bus Type Starlink V2M
Phase Status In Orbit
Owner/State SPXS/US

Large Constellations

Loading constellations...